When you browse on this site, cookies collect data to enhance your experience and personalize the content and advertising you see.
Visit our Privacy Policy to learn more. By continuing to use the site, you agree to this use of cookies and data.
  • In Deutschland
  • Länderverzeichnis
  • Für 7 Tage
  • Wassertemperatur
  • Wetterkarte
  • Widgets
  • user-avatar
    Anmelden

    Stündliche Wetter Invercargill

    Heute, 31 März, Dienstag

    Zeit Temperatur Niederschläge Wind Luftdruck Luftfeuchtigkeit
    00:00 +10°C° 0 mm 2 m/S 764 mmHg 95%
    01:00 +9°C° 0 mm 2 m/S 764 mmHg 95%
    02:00 +9°C° 0 mm 2 m/S 764 mmHg 96%
    03:00 +9°C° 0 mm 2 m/S 764 mmHg 96%
    04:00 +8°C° 0 mm 2 m/S 764 mmHg 96%
    05:00 +8°C° 0 mm 2 m/S 764 mmHg 96%
    06:00 +10°C° 0 mm 1 m/S 764 mmHg 92%
    07:00 +11°C° 0 mm 1 m/S 764 mmHg 89%
    08:00 +12°C° 0 mm 1 m/S 764 mmHg 85%
    09:00 +14°C° 0 mm 1 m/S 763 mmHg 76%
    10:00 +16°C° 0 mm 1 m/S 763 mmHg 67%
    11:00 +20°C° 0 mm 1 m/S 763 mmHg 57%
    12:00 +20°C° 0 mm 1 m/S 762 mmHg 56%
    13:00 +19°C° 0 mm 2 m/S 762 mmHg 56%
    14:00 +20°C° 0 mm 2 m/S 761 mmHg 55%
    15:00 +18°C° 0 mm 2 m/S 761 mmHg 65%
    16:00 +17°C° 0 mm 2 m/S 761 mmHg 75%
    17:00 +15°C° 0 mm 1 m/S 761 mmHg 88%
    18:00 +14°C° 0 mm 1 m/S 762 mmHg 90%
    19:00 +13°C° 0 mm 1 m/S 762 mmHg 92%
    20:00 +12°C° 0 mm 1 m/S 762 mmHg 95%
    21:00 +12°C° 0 mm 1 m/S 762 mmHg 95%
    22:00 +12°C° 0 mm 1 m/S 762 mmHg 96%
    23:00 +11°C° 0 mm 1 m/S 762 mmHg 96%

    Morgen, 1 April, Mittwoch

    Zeit Temperatur Niederschläge Wind Luftdruck Luftfeuchtigkeit
    00:00 +11°C° 0 mm 1 m/S 763 mmHg 96%
    01:00 +11°C° 0 mm 1 m/S 763 mmHg 96%
    02:00 +10°C° 0 mm 1 m/S 763 mmHg 97%
    03:00 +10°C° 0 mm 1 m/S 763 mmHg 96%
    04:00 +10°C° 0 mm 1 m/S 763 mmHg 96%
    05:00 +8°C° 0 mm 2 m/S 763 mmHg 96%
    06:00 +10°C° 0 mm 1 m/S 763 mmHg 94%
    07:00 +11°C° 0 mm 1 m/S 764 mmHg 92%
    08:00 +11°C° 0 mm 1 m/S 764 mmHg 89%
    09:00 +14°C° 0 mm 1 m/S 764 mmHg 78%
    10:00 +15°C° 0 mm 0 m/S 763 mmHg 67%
    11:00 +17°C° 0 mm 0 m/S 763 mmHg 56%
    12:00 +18°C° 0 mm 0 m/S 763 mmHg 55%
    13:00 +20°C° 0 mm 1 m/S 763 mmHg 54%
    14:00 +20°C° 0 mm 1 m/S 763 mmHg 53%
    15:00 +19°C° 0 mm 1 m/S 763 mmHg 61%
    16:00 +18°C° 0 mm 1 m/S 763 mmHg 69%
    17:00 +15°C° 0 mm 1 m/S 763 mmHg 77%
    18:00 +14°C° 0 mm 1 m/S 763 mmHg 81%
    19:00 +13°C° 0 mm 1 m/S 763 mmHg 86%
    20:00 +12°C° 0 mm 1 m/S 764 mmHg 90%
    21:00 +11°C° 0 mm 1 m/S 764 mmHg 90%
    22:00 +11°C° 0 mm 1 m/S 764 mmHg 91%
    23:00 +11°C° 0 mm 1 m/S 764 mmHg 91%

    übermorgen, 2 April, Donnerstag

    Zeit Temperatur Niederschläge Wind Luftdruck Luftfeuchtigkeit
    00:00 +11°C° 0 mm 1 m/S 764 mmHg 90%
    01:00 +12°C° 0 mm 1 m/S 764 mmHg 89%
    02:00 +12°C° 0 mm 2 m/S 764 mmHg 87%
    03:00 +12°C° 0 mm 1 m/S 764 mmHg 88%
    04:00 +12°C° 0 mm 1 m/S 764 mmHg 88%
    05:00 +11°C° 0 mm 1 m/S 764 mmHg 89%
    06:00 +12°C° 0 mm 1 m/S 764 mmHg 86%
    07:00 +12°C° 0 mm 0 m/S 764 mmHg 83%
    08:00 +13°C° 0 mm 0 m/S 764 mmHg 79%
    09:00 +14°C° 0 mm 1 m/S 764 mmHg 78%
    10:00 +15°C° 0 mm 1 m/S 764 mmHg 76%
    11:00 +16°C° 0 mm 1 m/S 764 mmHg 75%
    12:00 +16°C° 0 mm 1 m/S 764 mmHg 73%
    13:00 +16°C° 0 mm 1 m/S 764 mmHg 71%
    14:00 +16°C° 0 mm 1 m/S 763 mmHg 69%
    15:00 +15°C° 0 mm 1 m/S 764 mmHg 72%
    16:00 +15°C° 0 mm 1 m/S 764 mmHg 74%
    17:00 +14°C° 0 mm 1 m/S 764 mmHg 76%
    18:00 +14°C° 0 mm 1 m/S 764 mmHg 76%
    19:00 +13°C° 0 mm 1 m/S 764 mmHg 76%
    20:00 +13°C° 0 mm 1 m/S 764 mmHg 76%
    21:00 +13°C° 0 mm 1 m/S 764 mmHg 76%
    22:00 +13°C° 0 mm 1 m/S 764 mmHg 77%
    23:00 +12°C° 0 mm 1 m/S 764 mmHg 77%

    3 April, Freitag

    Zeit Temperatur Niederschläge Wind Luftdruck Luftfeuchtigkeit
    00:00 +12°C° 0 mm 1 m/S 764 mmHg 78%
    01:00 +12°C° 0 mm 1 m/S 764 mmHg 79%
    02:00 +12°C° 0 mm 1 m/S 764 mmHg 80%
    03:00 +11°C° 0 mm 1 m/S 764 mmHg 81%
    04:00 +11°C° 0 mm 1 m/S 764 mmHg 82%
    05:00 +11°C° 0 mm 1 m/S 764 mmHg 83%
    06:00 +10°C° 0 mm 2 m/S 764 mmHg 80%
    07:00 +12°C° 0 mm 2 m/S 765 mmHg 77%
    08:00 +12°C° 0 mm 2 m/S 765 mmHg 75%
    09:00 +14°C° 0 mm 2 m/S 764 mmHg 70%
    10:00 +15°C° 0 mm 2 m/S 764 mmHg 66%
    11:00 +17°C° 0 mm 2 m/S 764 mmHg 61%
    12:00 +17°C° 0 mm 3 m/S 764 mmHg 61%
    13:00 +18°C° 0 mm 3 m/S 764 mmHg 61%
    14:00 +19°C° 0 mm 4 m/S 763 mmHg 61%
    15:00 +18°C° 0 mm 3 m/S 763 mmHg 67%
    16:00 +17°C° 0 mm 3 m/S 763 mmHg 72%
    17:00 +16°C° 0 mm 3 m/S 763 mmHg 78%
    18:00 +14°C° 0 mm 3 m/S 763 mmHg 83%
    19:00 +13°C° 0 mm 2 m/S 764 mmHg 87%
    20:00 +12°C° 0 mm 2 m/S 764 mmHg 92%
    21:00 +12°C° 0 mm 2 m/S 764 mmHg 93%
    22:00 +11°C° 0 mm 1 m/S 764 mmHg 94%
    23:00 +11°C° 0 mm 1 m/S 764 mmHg 96%

    4 April, Samstag

    Zeit Temperatur Niederschläge Wind Luftdruck Luftfeuchtigkeit
    00:00 +11°C° 0 mm 1 m/S 764 mmHg 96%
    01:00 +11°C° 0 mm 1 m/S 764 mmHg 96%
    02:00 +11°C° 0 mm 1 m/S 764 mmHg 96%
    03:00 +11°C° 0 mm 1 m/S 764 mmHg 96%
    04:00 +10°C° 0 mm 1 m/S 764 mmHg 96%
    05:00 +10°C° 0 mm 1 m/S 764 mmHg 96%
    06:00 +10°C° 0 mm 2 m/S 764 mmHg 93%
    07:00 +12°C° 0 mm 2 m/S 764 mmHg 90%
    08:00 +13°C° 0 mm 2 m/S 764 mmHg 87%
    09:00 +15°C° 0 mm 1 m/S 764 mmHg 79%
    10:00 +18°C° 0 mm 1 m/S 764 mmHg 71%
    11:00 +20°C° 0 mm 1 m/S 764 mmHg 63%
    12:00 +21°C° 0 mm 1 m/S 764 mmHg 61%
    13:00 +21°C° 0 mm 1 m/S 763 mmHg 58%
    14:00 +21°C° 0 mm 2 m/S 763 mmHg 56%
    15:00 +20°C° 0 mm 2 m/S 763 mmHg 62%
    16:00 +19°C° 0 mm 2 m/S 763 mmHg 69%
    17:00 +18°C° 0 mm 2 m/S 762 mmHg 76%
    18:00 +17°C° 0 mm 2 m/S 763 mmHg 80%
    19:00 +16°C° 0 mm 2 m/S 763 mmHg 84%
    20:00 +14°C° 0 mm 2 m/S 763 mmHg 88%
    21:00 +14°C° 0 mm 2 m/S 763 mmHg 89%
    22:00 +14°C° 0 mm 2 m/S 763 mmHg 90%
    23:00 +13°C° 0 mm 2 m/S 763 mmHg 91%

    5 April, Sonntag

    Zeit Temperatur Niederschläge Wind Luftdruck Luftfeuchtigkeit
    00:00 +13°C° 0 mm 2 m/S 763 mmHg 91%
    01:00 +13°C° 0 mm 2 m/S 763 mmHg 91%
    02:00 +11°C° 0 mm 3 m/S 763 mmHg 92%
    03:00 +11°C° 0 mm 3 m/S 763 mmHg 90%
    04:00 +11°C° 0 mm 3 m/S 763 mmHg 89%
    05:00 +11°C° 0 mm 3 m/S 763 mmHg 88%
    06:00 +12°C° 0 mm 3 m/S 763 mmHg 84%
    07:00 +12°C° 0 mm 3 m/S 763 mmHg 80%
    08:00 +13°C° 0 mm 3 m/S 763 mmHg 77%
    09:00 +16°C° 0 mm 3 m/S 763 mmHg 70%
    10:00 +18°C° 0 mm 2 m/S 762 mmHg 64%
    11:00 +20°C° 0 mm 2 m/S 762 mmHg 58%
    12:00 +20°C° 0 mm 2 m/S 762 mmHg 56%
    13:00 +22°C° 0 mm 1 m/S 762 mmHg 54%
    14:00 +23°C° 0 mm 1 m/S 761 mmHg 51%
    15:00 +21°C° 0 mm 1 m/S 761 mmHg 59%
    16:00 +20°C° 0 mm 1 m/S 761 mmHg 66%
    17:00 +17°C° 0 mm 0 m/S 761 mmHg 73%
    18:00 +18°C° 0 mm 1 m/S 761 mmHg 72%
    19:00 +17°C° 0 mm 2 m/S 761 mmHg 71%
    20:00 +17°C° 0 mm 2 m/S 762 mmHg 70%
    21:00 +16°C° 0 mm 2 m/S 762 mmHg 71%
    22:00 +15°C° 0 mm 2 m/S 762 mmHg 73%
    23:00 +14°C° 0 mm 3 m/S 762 mmHg 74%
    Mehr zeigen